Lewiston, WA

10:11 AM PDT on July 22, 2017 (GMT -0700)
Lewiston-Nez Perce County

Weather History for KLWS - October, 2011

Change the Weather History Date:

Thursday, October 13, 2011

  Actual Average Record
Temperature  
Mean Temperature 53 °F 53 °F  
Max Temperature 57 °F 64 °F 81 °F (1929)
Min Temperature 48 °F 42 °F 26 °F (1969)
Degree Days  
Heating Degree Days 12 12  
Month to date heating degree days 104 126  
Since 1 July heating degree days 128 240  
Cooling Degree Days 0 0  
Month to date cooling degree days 8 1  
Year to date cooling degree days 742 805  
Growing Degree Days 2 (Base 50)    
Moisture  
Dew Point 42 °F    
Average Humidity 67    
Maximum Humidity 83    
Minimum Humidity 51    
Precipitation  
Precipitation 0.02 in 0.03 in 0.53 in (1918)
Month to date precipitation 0.68 0.35  
Year to date precipitation 11.59 9.55  
Snow  
Snow 0.00 in 0.00 in 0.10 in (1918)
Month to date snowfall 0.0 0.0  
Since 1 July snowfall 0.0 0.0  
Since 1 September snowfall 0.0 0.0  
Snow Depth 0.00 in    
Sea Level Pressure  
Sea Level Pressure 30.14 in    
Wind  
Wind Speed 1 mph (SSE)    
Max Wind Speed 10 mph    
Max Gust Speed 22 mph    
Visibility 10 miles    
Events Rain    
T = Trace of Precipitation, MM = Missing Value Source: NWS Daily Summary

Daily Weather History Graph

Daily Weather History Graph

Search for Another Location

Airport or City:

Trip Planner

Search our weather history database for the weather conditions in past years. The results will help you decide how hot, cold, wet, or windy it might be!

Date:

Astronomy

Oct. 13, 2011 Rise Set
Actual Time 7:02 AM PDT 6:05 PM PDT
Civil Twilight 6:32 AM PDT 6:35 PM PDT
Nautical Twilight 5:57 AM PDT 7:10 PM PDT
Astronomical Twilight 5:22 AM PDT 7:45 PM PDT
Moon 6:33 PM PDT (10/13) 8:48 AM PDT (10/13)
Length of Visible Light 12h 03m
Length of Day
11h 03m
Full, 97% of the Moon is Illuminated
Oct 13
Full
Oct 19
Last Quarter
Oct 26
New
Nov 2
First Quarter
Nov 10
Full

Hourly Weather History & Observations

Time (PDT) Temp. Dew Point Humidity Pressure Visibility Wind Dir Wind Speed Gust Speed Precip Events Conditions
12:56 AM 50.0 °F 41.0 °F 71% 30.19 in 10.0 mi Calm Calm - N/A   Partly Cloudy
1:56 AM 52.0 °F 39.9 °F 63% 30.18 in 10.0 mi Calm Calm - N/A   Clear
2:56 AM 52.0 °F 39.9 °F 63% 30.19 in 10.0 mi Calm Calm - N/A   Clear
3:56 AM 50.0 °F 41.0 °F 71% 30.18 in 10.0 mi Calm Calm - N/A   Clear
4:56 AM 50.0 °F 41.0 °F 71% 30.17 in 10.0 mi Calm Calm - N/A   Scattered Clouds
5:56 AM 48.9 °F 41.0 °F 74% 30.17 in 10.0 mi Calm Calm - N/A   Partly Cloudy
6:56 AM 48.0 °F 42.1 °F 80% 30.17 in 10.0 mi SSE 3.5 mph - N/A   Clear
7:56 AM 48.9 °F 42.1 °F 77% 30.17 in 10.0 mi Calm Calm - N/A   Clear
8:56 AM 50.0 °F 43.0 °F 77% 30.17 in 10.0 mi Calm Calm - N/A   Clear
9:56 AM 51.1 °F 43.0 °F 74% 30.19 in 10.0 mi SSE 3.5 mph - N/A   Mostly Cloudy
10:56 AM 52.0 °F 42.1 °F 69% 30.19 in 10.0 mi Calm Calm - N/A   Mostly Cloudy
11:56 AM 54.0 °F 43.0 °F 66% 30.17 in 10.0 mi North 3.5 mph - N/A   Clear
12:56 PM 55.0 °F 43.0 °F 64% 30.15 in 10.0 mi Calm Calm - N/A   Clear
1:56 PM 55.9 °F 39.0 °F 53% 30.14 in 10.0 mi Calm Calm - N/A   Clear
2:56 PM 57.0 °F 39.0 °F 51% 30.11 in 10.0 mi Calm Calm - N/A   Clear
3:56 PM 57.0 °F 39.0 °F 51% 30.11 in 10.0 mi Calm Calm - N/A   Clear
4:56 PM 55.9 °F 39.9 °F 55% 30.10 in 10.0 mi Calm Calm - N/A   Mostly Cloudy
5:56 PM 55.0 °F 39.9 °F 57% 30.11 in 10.0 mi Calm Calm - N/A   Overcast
6:56 PM 55.0 °F 39.0 °F 55% 30.11 in 10.0 mi Calm Calm - N/A   Overcast
7:56 PM 52.0 °F 43.0 °F 71% 30.12 in 10.0 mi South 6.9 mph - 0.01 in Rain Light Rain
8:56 PM 52.0 °F 43.0 °F 71% 30.10 in 10.0 mi SSE 5.8 mph - 0.00 in   Overcast
9:56 PM 52.0 °F 43.0 °F 71% 30.09 in 10.0 mi Calm Calm - 0.00 in Rain Light Rain
10:56 PM 51.1 °F 44.1 °F 77% 30.09 in 10.0 mi Calm Calm - 0.01 in   Overcast
11:56 PM 51.1 °F 46.0 °F 83% 30.08 in 7.0 mi Calm Calm - N/A   Overcast